Location: Roc des P�zouls
(43.9667°N, 3.5500°E)
Time: 04:00:21
(UTC+00:00)

USA 234 - Visible Passes

Search period start: 28 February 2020 00:00
Search period end: 09 March 2020 00:00
Orbit: 1100 x 1107 km, 123.0° (Epoch: 20 February)

Date Brightness Start Highest point End Pass type
(mag) Time Alt. Az. Time Alt. Az. Time Alt. Az.
28 Feb 4.6 18:12:26 10° NE 18:17:55 30° N 18:23:24 10° WNW visible
28 Feb 4.3 19:58:02 27° NE 19:59:46 31° NNE 20:05:21 10° NW visible
28 Feb 4.8 21:45:22 29° NW 21:45:22 29° NW 21:48:25 10° NW visible
29 Feb 4.6 19:13:22 15° NE 19:17:37 28° N 19:23:00 10° NW visible
29 Feb 4.3 21:00:43 37° N 21:00:43 37° N 21:05:35 10° NW visible
29 Feb 5.7 22:48:03 14° NW 22:48:03 14° NW 22:48:48 10° NW visible
01 Mar 4.6 18:30:00 10° NE 18:35:29 30° N 18:40:58 10° WNW visible
01 Mar 4.3 20:16:03 29° NNE 20:17:19 31° NNE 20:22:55 10° NW visible
01 Mar 5.0 22:03:23 26° NW 22:03:23 26° NW 22:05:59 10° NW visible
02 Mar 4.6 19:31:23 17° NE 19:35:10 28° N 19:40:33 10° NW visible
02 Mar 4.4 21:18:43 35° N 21:18:43 35° N 21:23:08 10° NW visible
02 Mar 5.8 23:06:03 12° NW 23:06:03 12° NW 23:06:22 10° NW visible
03 Mar 4.6 18:47:33 10° NE 18:53:02 30° N 18:58:31 10° WNW visible
03 Mar 4.4 20:34:03 30° NNE 20:34:53 31° NNE 20:40:28 10° NW visible
03 Mar 5.2 22:21:22 22° NW 22:21:22 22° NW 22:23:32 10° NW visible
04 Mar 4.4 18:04:58 10° NE 18:10:49 36° NNW 18:16:40 10° W visible
04 Mar 4.6 19:49:22 18° NE 19:52:44 28° N 19:58:06 10° NW visible
04 Mar 4.6 21:36:42 33° NNW 21:36:42 33° NNW 21:40:42 10° NW visible
05 Mar 4.6 19:05:06 10° NE 19:10:35 30° N 19:16:04 10° WNW visible
05 Mar 4.4 20:52:01 31° NNE 20:52:26 31° NNE 20:58:02 10° NW visible
05 Mar 5.3 22:39:21 20° NW 22:39:21 20° NW 22:41:06 10° NW visible
06 Mar 4.4 18:22:31 10° NE 18:28:22 36° NNW 18:34:13 10° W visible
06 Mar 4.7 20:07:20 20° NE 20:10:17 28° N 20:15:39 10° NW visible
06 Mar 4.7 21:54:40 30° NNW 21:54:40 30° NNW 21:58:15 10° NW visible
07 Mar 4.7 19:22:40 10° NE 19:28:08 30° N 19:33:37 10° WNW visible
07 Mar 4.5 21:09:58 31° NNE 21:10:00 31° NNE 21:15:35 10° NW visible
07 Mar 5.5 22:57:17 17° NW 22:57:17 17° NW 22:58:40 10° NW visible
08 Mar 4.5 18:40:05 10° NE 18:45:56 36° NNW 18:51:46 10° W visible
08 Mar 4.7 20:25:15 22° NE 20:27:50 28° N 20:33:13 10° NW visible
08 Mar 4.9 22:12:36 28° NNW 22:12:36 28° NNW 22:15:49 10° NW visible
